Concordia, KS

1:09 AM CDT on May 30, 2017 (GMT -0500)
Blosser Municipal

Weather History for KCNK - April, 2013

Change the Weather History Date:

Monday, April 8, 2013

  Actual Average Record
Temperature  
Mean Temperature 65 °F 51 °F  
Max Temperature 76 °F 63 °F 89 °F (1887)
Min Temperature 53 °F 39 °F 15 °F (2007)
Degree Days  
Heating Degree Days 0 15  
Month to date heating degree days 112 126  
Since 1 July heating degree days 4948 5017  
Cooling Degree Days 0 0  
Month to date cooling degree days 0 0  
Year to date cooling degree days 0 1  
Growing Degree Days 14 (Base 50)    
Moisture  
Dew Point 57 °F    
Average Humidity 79    
Maximum Humidity 100    
Minimum Humidity 57    
Precipitation  
Precipitation 0.00 in 0.07 in 1.28 in (1961)
Month to date precipitation 0.00 0.60  
Year to date precipitation 2.37 3.98  
Snow  
Snow 0.00 in 0.00 in 5.50 in (1961)
Month to date snowfall 0.0 0.3  
Year to date snowfall 17.9 13.5  
Since 1 July snowfall 26.4 20.0  
Snow Depth 0.00 in    
Sea Level Pressure  
Sea Level Pressure 29.63 in    
Wind  
Wind Speed 11 mph (SSE)    
Max Wind Speed 24 mph    
Max Gust Speed 32 mph    
Visibility 7 miles    
Events      
T = Trace of Precipitation, MM = Missing Value Source: NWS Daily Summary

Daily Weather History Graph

Daily Weather History Graph

Search for Another Location

Airport or City:

Trip Planner

Search our weather history database for the weather conditions in past years. The results will help you decide how hot, cold, wet, or windy it might be!

Date:

Astronomy

Apr. 08, 2013 Rise Set
Actual Time 7:03 AM CDT 8:01 PM CDT
Civil Twilight 6:36 AM CDT 8:29 PM CDT
Nautical Twilight 6:03 AM CDT 9:02 PM CDT
Astronomical Twilight 5:29 AM CDT 9:36 PM CDT
Moon 5:54 AM CDT (4/8) 6:37 PM CDT (4/8)
Length of Visible Light 13h 53m
Length of Day
12h 58m
Waning Crescent, 3% of the Moon is Illuminated
Apr 8
Waning Crescent
Apr 10
New
Apr 18
First Quarter
Apr 25
Full
May 2
Last Quarter

Hourly Weather History & Observations

Time (CDT) Temp. Dew Point Humidity Pressure Visibility Wind Dir Wind Speed Gust Speed Precip Events Conditions
12:55 AM 53.1 °F 50.0 °F 89% 29.66 in 10.0 mi East 4.6 mph - N/A   Overcast
1:20 AM 53.6 °F 50.0 °F 88% 29.68 in 10.0 mi SE 10.4 mph - N/A   Overcast
1:55 AM 53.1 °F 50.0 °F 89% 29.65 in 10.0 mi SE 6.9 mph - N/A   Overcast
2:55 AM 53.1 °F 51.1 °F 93% 29.63 in 10.0 mi SE 5.8 mph - N/A   Overcast
3:52 AM 53.6 °F 51.8 °F 94% 29.65 in 10.0 mi SSE 5.8 mph - N/A   Overcast
3:55 AM 54.0 °F 52.0 °F 93% 29.62 in 8.0 mi SSE 4.6 mph - N/A   Overcast
4:06 AM 53.6 °F 53.6 °F 100% 29.65 in 6.0 mi Calm Calm - N/A   Overcast
4:55 AM 54.0 °F 53.1 °F 97% 29.62 in 6.0 mi Calm Calm - N/A   Overcast
5:25 AM 55.4 °F 53.6 °F 94% 29.65 in 2.5 mi SSE 3.5 mph - N/A   Overcast
5:41 AM 57.2 °F 55.4 °F 94% 29.65 in 1.8 mi South 6.9 mph - N/A   Overcast
5:55 AM 57.9 °F 57.0 °F 97% 29.64 in 2.0 mi South 6.9 mph - N/A   Overcast
6:17 AM 57.2 °F 57.2 °F 100% 29.64 in 1.8 mi South 8.1 mph - N/A   Overcast
6:30 AM 57.2 °F 57.2 °F 100% 29.65 in 2.5 mi South 9.2 mph - N/A   Overcast
6:55 AM 57.9 °F 57.0 °F 97% 29.64 in 2.5 mi Calm Calm - N/A   Overcast
7:30 AM 57.2 °F 57.2 °F 100% 29.65 in 1.8 mi SSW 3.5 mph - N/A   Overcast
7:49 AM 57.2 °F 57.2 °F 100% 29.65 in 1.2 mi SSW 6.9 mph - N/A   Overcast
7:50 AM 57.9 °F 57.0 °F 97% 29.65 in 1.2 mi SSW 6.9 mph - N/A   Overcast
8:51 AM 59.0 °F 57.2 °F 94% 29.67 in 1.5 mi SSW 5.8 mph - N/A   Overcast
8:55 AM 59.0 °F 57.9 °F 96% 29.67 in 1.5 mi South 8.1 mph - N/A   Overcast
9:11 AM 60.8 °F 57.2 °F 88% 29.67 in 2.0 mi SSW 6.9 mph - N/A   Overcast
9:31 AM 60.8 °F 59.0 °F 94% 29.67 in 3.0 mi South 4.6 mph - N/A   Overcast
9:55 AM 60.1 °F 57.9 °F 93% 29.67 in 4.0 mi South 8.1 mph - N/A   Overcast
10:10 AM 60.8 °F 59.0 °F 94% 29.66 in 6.0 mi South 8.1 mph - N/A   Overcast
10:44 AM 62.6 °F 59.0 °F 88% 29.67 in 3.0 mi South 6.9 mph - N/A   Overcast
10:55 AM 62.1 °F 60.1 °F 93% 29.66 in 4.0 mi South 6.9 mph - N/A   Overcast
11:14 AM 62.6 °F 60.8 °F 94% 29.68 in 6.0 mi South 5.8 mph - N/A   Overcast
11:25 AM 64.4 °F 60.8 °F 88% 29.67 in 7.0 mi South 8.1 mph - N/A   Overcast
11:44 AM 66.2 °F 60.8 °F 83% 29.67 in 10.0 mi South 9.2 mph - N/A   Overcast
11:55 AM 66.0 °F 59.0 °F 78% 29.65 in 10.0 mi SSE 8.1 mph - N/A   Overcast
12:55 PM 68.0 °F 59.0 °F 73% 29.64 in 10.0 mi South 13.8 mph - N/A   Overcast
1:55 PM 71.1 °F 60.1 °F 68% 29.61 in 10.0 mi SE 15.0 mph - N/A   Overcast
2:21 PM 71.6 °F 60.8 °F 69% 29.63 in 10.0 mi SE 15.0 mph - N/A   Overcast
2:55 PM 72.0 °F 59.0 °F 64% 29.59 in 10.0 mi SE 15.0 mph - N/A   Overcast
3:55 PM 73.9 °F 59.0 °F 59% 29.58 in 10.0 mi ESE 12.7 mph - N/A   Overcast
4:55 PM 73.9 °F 60.1 °F 62% 29.56 in 10.0 mi ESE 15.0 mph 19.6 mph N/A   Mostly Cloudy
5:55 PM 73.0 °F 57.9 °F 59% 29.55 in 10.0 mi ESE 15.0 mph 25.3 mph N/A   Partly Cloudy
6:55 PM 70.0 °F 57.9 °F 65% 29.57 in 10.0 mi SE 16.1 mph 23.0 mph N/A   Mostly Cloudy
7:55 PM 66.9 °F 57.9 °F 73% 29.57 in 10.0 mi ESE 17.3 mph 23.0 mph N/A   Mostly Cloudy
8:55 PM 64.9 °F 57.0 °F 75% 29.59 in 10.0 mi SE 17.3 mph - N/A   Mostly Cloudy
9:55 PM 64.0 °F 57.9 °F 80% 29.62 in 10.0 mi SE 11.5 mph - N/A   Overcast
10:55 PM 63.0 °F 57.9 °F 84% 29.58 in 10.0 mi SE 18.4 mph 24.2 mph N/A   Scattered Clouds
11:55 PM 62.1 °F 57.9 °F 86% 29.55 in 9.0 mi SE 20.7 mph 25.3 mph N/A   Clear